Sign in

Goboko Update

On the 31st December 2018 and 1st January 2019 we'll be migrating to a new Goboko platform and booking operations will not be possible

The new iPhone app will be available in March 2019

In the meantime, mobile device users can continue to use Goboko through a browser

Info

Aviation weather

METAR EGKB 201050Z 23007KT 190V260 9999 BKN010 10/08 Q1033

Aviation weather from ADDS. Re-check weather before flight.

-